Regional Weather Roundup
Issued by NWS

Home | Current Version | Previous Version | Graphics & Text | Print | Product List | Glossary On
Versions: 1 2 3 4 5 6 7 8 9 10 11 12 13 14 15 16 17 18 19 20 21 22 23 24 25 26 27 28 29 30 31 32 33 34 35 36 37 38 39 40 41 42 43 44 45 46 47 48 49 50
743
ASUS43 KLMK 242210
RWRKY
KENTUCKY REGIONAL WEATHER ROUNDUP
NATIONAL WEATHER SERVICE LOUISVILLE KY
600 PM EDT FRI MAR 24 2017

NOTE "FAIR" INDICATES FEW OR NO CLOUDS BELOW 12,000 FEET
WITH NO SIGNIFICANT WEATHER AND/OR OBSTRUCTIONS TO VISIBILITY.

KYZ001>023-026-027-061>063-070>075-242300-
WESTERN AND SOUTH CENTRAL KENTUCKY

CITY           SKY/WX    TMP DP  RH WIND       PRES   REMARKS
PADUCAH        MOSUNNY   73  54  51 S15G25    30.06F
HENDERSON      CLOUDY    70  54  56 S16G23    30.07S
OWENSBORO      CLOUDY    75  54  47 SW16      30.10F
HOPKINSVILLE   PTSUNNY   73  53  49 S14G25    30.12F
BOWLING GREEN  CLOUDY    74  53  48 S16G26    30.16F
GLASGOW        PTSUNNY   73  52  48 S12       30.17F
$$

KYZ024-025-028>034-038-045-046-053-242300-
NORTH CENTRAL KENTUCKY

CITY           SKY/WX    TMP DP  RH WIND       PRES   REMARKS
LOUISVILLE/SDF PTSUNNY   76  49  38 SW17G24   30.12S
LOUISVILLE/LOU MOSUNNY   75  51  43 SW14G21   30.12F
FORT KNOX      PTSUNNY   73  53  50 S16       30.12F
$$

KYZ035>037-039>044-047>052-055>060-089>105-242300-
NORTHEAST KENTUCKY

CITY           SKY/WX    TMP DP  RH WIND       PRES   REMARKS
LEXINGTON      CLOUDY    74  50  42 SW16      30.16F
COVINGTON      CLOUDY    72  53  51 S12G23    30.10F
FRANKFORT      CLOUDY    75  50  41 SW18G28   30.13F
$$

KYZ054-064>069-076>088-106>120-242300-
SOUTHEAST KENTUCKY

CITY           SKY/WX    TMP DP  RH WIND       PRES   REMARKS
JACKSON        SUNNY     75  48  38 MISG      30.20S
LONDON         MOSUNNY   73  47  39 S10G23    30.22S
SOMERSET       CLOUDY    72  46  40 S12G17    30.22S
MIDDLESBORO    MOSUNNY   70  49  47 SW6       30.26S
MONTICELLO     PTCLDY    73  52  47 VRB7      30.22F
$$





USA.gov is the U.S. government's official web portal to all federal, state and local government web resources and services.